"2016-02-08 00:00:00",1354971,10.73,146.7,6.242,1.24,2.699,98.15297,-5.405,-4.104,82.7,0,109.4,13.44,-4.67,108.7
"2016-02-08 00:00:30",1354972,10.55,149.2,6.526,1.115,2.618,98.15353,-5.404,-4.128,82.8,0,109.4,13.44,-4.67,111.2
"2016-02-08 00:01:00",1354973,11.04,146.3,6.045,1.204,2.643,98.14812,-5.417,-4.148,82.8,0,109.4,13.43,-4.68,108.3
"2016-02-08 00:01:30",1354974,10.76,147,6.26,1.223,2.554,98.1314,-5.46,-4.143,82.8,0,109.4,13.43,-4.73,109.0
"2016-02-08 00:02:00",1354975,10.9,145.7,6.447,1.301,2.794,98.12318,-5.481,-4.113,82.9,0,109.4,13.43,-4.75,107.7
"2016-02-08 00:02:30",1354976,10.99,146.3,5.93,1.169,2.623,98.12146,-5.485,-4.139,82.9,0,109.4,13.42,-4.75,108.3
"2016-02-08 00:03:00",1354977,10.66,147.7,6.714,1.167,2.624,98.1209,-5.487,-4.179,82.9,0,109.4,13.43,-4.75,109.7
"2016-02-08 00:03:30",1354978,10.03,145,7.002,1.279,2.378,98.12146,-5.485,-4.178,82.9,0,109.4,13.43,-4.75,107.0
"2016-02-08 00:04:00",1354979,10.41,143.9,6.399,1.202,2.614,98.12202,-5.484,-4.189,83,0,109.4,13.43,-4.75,105.9
"2016-02-08 00:04:30",1354980,10.07,147.3,5.775,1.283,2.573,98.12005,-5.489,-4.186,83,0,109.4,13.43,-4.76,109.3
"2016-02-08 00:05:00",1354981,10.37,147,6.196,1.223,2.667,98.11238,-5.508,-4.215,83.1,0,109.4,13.43,-4.78,109.0
"2016-02-08 00:05:30",1354982,10.6,148.4,5.933,1.189,2.654,98.10585,-5.525,-4.19,83.2,0,109.4,13.43,-4.79,110.4
"2016-02-08 00:06:00",1354983,10.5,150.9,6.397,1.144,2.515,98.10524,-5.526,-4.225,83.2,0,109.4,13.44,-4.79,112.9
"2016-02-08 00:06:30",1354984,10.39,150,6.871,1.265,2.224,98.10607,-5.524,-4.241,83.2,0,109.4,13.44,-4.79,112.0
"2016-02-08 00:07:00",1354985,10.63,147.6,6.425,1.253,2.312,98.10126,-5.537,-4.203,83.3,0,109.4,13.44,-4.80,109.6
"2016-02-08 00:07:30",1354986,10.57,148.3,6.522,1.165,2.521,98.10037,-5.539,-4.23,83.3,0,109.4,13.44,-4.81,110.3
"2016-02-08 00:08:00",1354987,10.24,144.8,6.378,1.178,2.659,98.0981,-5.545,-4.256,83.4,0,109.4,13.44,-4.81,106.8
"2016-02-08 00:08:30",1354988,9.54,143.6,6.619,1.298,2.548,98.09526,-5.552,-4.237,83.4,0,109.4,13.44,-4.82,105.6
"2016-02-08 00:09:00",1354989,9.91,144.5,6.14,1.243,2.632,98.09385,-5.555,-4.238,83.5,0,109.4,13.44,-4.82,106.5
"2016-02-08 00:09:30",1354990,10.24,147.7,5.781,1.333,2.555,98.0944,-5.554,-4.247,83.5,0,109.4,13.44,-4.82,109.7
"2016-02-08 00:10:00",1354991,10.42,145.1,5.969,1.104,2.567,98.09496,-5.553,-4.249,83.5,0,109.4,13.44,-4.82,107.1
"2016-02-08 00:10:30",1354992,10.37,146,6.947,1.236,2.304,98.09468,-5.553,-4.274,83.6,0,109.4,13.44,-4.82,108.0
"2016-02-08 00:11:00",1354993,9.8,150.4,6.515,1.276,2.921,98.09438,-5.554,-4.281,83.6,0,109.4,13.44,-4.82,112.4
"2016-02-08 00:11:30",1354994,10.14,151.6,6.04,1.189,2.563,98.08134,-5.587,-4.259,83.7,0,109.4,13.44,-4.85,113.6
"2016-02-08 00:12:00",1354995,10.12,152.6,6.358,1.218,2.362,98.07851,-5.594,-4.267,83.7,0,109.4,13.44,-4.86,114.6
"2016-02-08 00:12:30",1354996,10.08,152.9,7.076,1.132,2.541,98.07766,-5.597,-4.292,83.7,0,109.4,13.44,-4.86,114.9
"2016-02-08 00:13:00",1354997,9.71,151.7,5.826,1.144,2.548,98.07653,-5.6,-4.292,83.7,0,109.4,13.44,-4.87,113.7
"2016-02-08 00:13:30",1354998,9.59,151.2,6.89,1.308,2.407,98.0734,-5.607,-4.317,83.8,0,109.4,13.44,-4.88,113.2
"2016-02-08 00:14:00",1354999,9.85,150.7,6.108,1.212,2.707,98.06632,-5.626,-4.292,83.8,0,109.4,13.45,-4.89,112.7
"2016-02-08 00:14:30",1355000,10.21,147.4,6.226,1.2,2.683,98.06123,-5.638,-4.285,83.9,0,109.4,13.45,-4.91,109.4
"2016-02-08 00:15:00",1355001,10.35,146.6,6.598,1.209,2.3,98.06123,-5.638,-4.336,83.9,0,109.4,13.45,-4.91,108.6
"2016-02-08 00:15:30",1355002,10.12,146.8,6.584,1.143,2.437,98.06065,-5.64,-4.351,83.9,0,109.4,13.45,-4.91,108.8
"2016-02-08 00:16:00",1355003,9.95,148,6.153,1.177,2.407,98.05413,-5.657,-4.359,84,0,109.4,13.45,-4.92,110.0
"2016-02-08 00:16:30",1355004,9.75,148.4,6.552,1.276,2.514,98.0445,-5.681,-4.346,84,0,109.4,13.45,-4.95,110.4
"2016-02-08 00:17:00",1355005,10.2,150.2,6.075,1.157,2.706,98.04251,-5.686,-4.367,84,0,109.4,13.45,-4.95,112.2
"2016-02-08 00:17:30",1355006,10.68,145.9,6.333,1.199,2.489,98.03542,-5.704,-4.344,84.1,0,109.4,13.45,-4.97,107.9
"2016-02-08 00:18:00",1355007,10.61,148.9,6.651,1.264,2.594,98.02834,-5.722,-4.395,84,0,109.4,13.44,-4.99,110.9
"2016-02-08 00:18:30",1355008,10.7,147.4,6.888,1.185,2.63,98.02721,-5.725,-4.403,84.1,0,109.4,13.44,-4.99,109.4
"2016-02-08 00:19:00",1355009,10.29,148.3,6.715,1.296,2.459,98.02721,-5.725,-4.378,84.1,0,109.4,13.44,-4.99,110.3
"2016-02-08 00:19:30",1355010,10.49,147.4,6.906,1.171,2.545,98.02182,-5.739,-4.41,84.1,0,109.3,13.44,-5.01,109.4
"2016-02-08 00:20:00",1355011,10.07,147.2,7.632,1.15,2.679,98.01358,-5.76,-4.426,84.1,0,109.4,13.44,-5.03,109.2
"2016-02-08 00:20:30",1355012,9.7,146.6,6.303,1.411,2.508,98.01101,-5.766,-4.418,84.2,0,109.4,13.44,-5.03,108.6
"2016-02-08 00:21:00",1355013,10.06,146.2,6.226,1.142,2.437,98.01126,-5.766,-4.429,84.2,0,109.4,13.44,-5.03,108.2
"2016-02-08 00:21:30",1355014,10.07,143.8,6.923,1.174,2.512,98.01176,-5.764,-4.43,84.2,0,109.4,13.44,-5.03,105.8
"2016-02-08 00:22:00",1355015,9.94,145.6,6.704,1.265,2.253,98.00972,-5.77,-4.457,84.2,0,109.3,13.44,-5.04,107.6
"2016-02-08 00:22:30",1355016,10.39,145.1,6.22,1.165,2.589,98.006,-5.779,-4.46,84.3,0,109.3,13.44,-5.05,107.1
"2016-02-08 00:23:00",1355017,10.47,145.2,5.927,1.197,2.839,98.00736,-5.776,-4.484,84.3,0,109.4,13.45,-5.04,107.2
"2016-02-08 00:23:30",1355018,9.9,151.5,6.021,1.192,2.501,98.00818,-5.774,-4.461,84.3,0,109.3,13.45,-5.04,113.5
"2016-02-08 00:24:00",1355019,9.67,150.1,6.049,1.229,2.56,98.00022,-5.794,-4.475,84.3,0,109.3,13.45,-5.06,112.1
"2016-02-08 00:24:30",1355020,9.87,150.6,6.469,1.116,2.478,97.9937,-5.81,-4.473,84.4,0,109.3,13.45,-5.08,112.6
"2016-02-08 00:25:00",1355021,9.82,146.1,6.473,1.169,2.466,97.99173,-5.815,-4.527,84.4,0,109.3,13.45,-5.08,108.1
"2016-02-08 00:25:30",1355022,9.5,147.3,6.553,1.221,2.38,97.98942,-5.821,-4.533,84.4,0,109.3,13.45,-5.09,109.3
"2016-02-08 00:26:00",1355023,9.2,148.2,8.36,1.216,2.504,97.98291,-5.838,-4.49,84.4,0,109.3,13.45,-5.11,110.2
"2016-02-08 00:26:30",1355024,9.74,147.3,6.037,1.122,2.611,97.97752,-5.852,-4.497,84.5,0,109.3,13.45,-5.12,109.3
"2016-02-08 00:27:00",1355025,9.74,144.5,6.484,1.122,2.406,97.97668,-5.854,-4.507,84.5,0,109.3,13.45,-5.12,106.5
"2016-02-08 00:27:30",1355026,9.38,144.2,6.719,1.155,2.379,97.9764,-5.854,-4.537,84.5,0,109.3,13.45,-5.12,106.2
"2016-02-08 00:28:00",1355027,9.51,143.3,6.703,1.285,2.503,97.9764,-5.854,-4.531,84.5,0,109.3,13.45,-5.12,105.3
"2016-02-08 00:28:30",1355028,9,146.7,6.42,1.239,2.508,97.97723,-5.852,-4.53,84.5,0,109.3,13.45,-5.12,108.7
"2016-02-08 00:29:00",1355029,9.14,145.9,6.743,1.191,2.478,97.97584,-5.856,-4.551,84.5,0,109.4,13.45,-5.12,107.9
"2016-02-08 00:29:30",1355030,9.3,149.5,6.235,1.16,2.487,97.97917,-5.847,-4.541,84.6,0,109.3,13.45,-5.12,111.5
"2016-02-08 00:30:00",1355031,9.36,149.9,7.26,1.157,2.291,97.98,-5.845,-4.566,84.5,0,109.3,13.45,-5.11,111.9
"2016-02-08 00:30:30",1355032,9,151.6,6.797,1.26,2.125,97.97796,-5.85,-4.571,84.6,0,109.3,13.45,-5.12,113.6
"2016-02-08 00:31:00",1355033,8.2,150.5,6.56,1.335,2.339,97.97227,-5.865,-4.554,84.6,0,109.3,13.45,-5.13,112.5
"2016-02-08 00:31:30",1355034,8.61,150.3,6.354,1.185,2.262,97.96689,-5.879,-4.551,84.6,0,109.3,13.46,-5.15,112.3
"2016-02-08 00:32:00",1355035,8.5,150,6.417,1.114,2.484,97.96716,-5.878,-4.595,84.7,0,109.3,13.46,-5.15,112.0
"2016-02-08 00:32:30",1355036,8.73,150,6.633,1.185,2.446,97.96773,-5.876,-4.578,84.7,0,109.3,13.46,-5.15,112.0
"2016-02-08 00:33:00",1355037,8.72,149.4,6.501,1.188,2.193,97.96828,-5.875,-4.571,84.7,0,109.3,13.46,-5.14,111.4
"2016-02-08 00:33:30",1355038,8.69,151.6,5.894,1.249,2.348,97.96742,-5.877,-4.579,84.8,0,109.3,13.46,-5.15,113.6
"2016-02-08 00:34:00",1355039,8.96,152.7,6.131,1.155,2.187,97.96543,-5.882,-4.582,84.8,0,109.3,13.45,-5.15,114.7
"2016-02-08 00:34:30",1355040,8.64,155.1,6.41,1.257,2.118,97.96034,-5.895,-4.598,84.8,0,109.3,13.45,-5.16,117.1
"2016-02-08 00:35:00",1355041,8.72,156.2,7.206,1.27,2.585,97.95724,-5.903,-4.608,84.9,0,109.3,13.45,-5.17,118.2
"2016-02-08 00:35:30",1355042,8.81,155.8,5.939,1.16,2.234,97.95466,-5.91,-4.573,84.9,0,109.3,13.45,-5.18,117.8
"2016-02-08 00:36:00",1355043,8.48,151.9,6.813,1.25,2.031,97.9521,-5.916,-4.59,84.9,0,109.3,13.45,-5.19,113.9
"2016-02-08 00:36:30",1355044,8.79,152.8,6.429,1.146,2.218,97.95348,-5.913,-4.599,85,0,109.3,13.45,-5.18,114.8
"2016-02-08 00:37:00",1355045,8.92,151.8,6.511,1.137,2.268,97.95321,-5.913,-4.601,85,0,109.3,13.45,-5.18,113.8
"2016-02-08 00:37:30",1355046,8.26,149.5,6.317,1.296,1.956,97.95432,-5.911,-4.611,85,0,109.3,13.45,-5.18,111.5
"2016-02-08 00:38:00",1355047,8.54,150.3,6.237,1.276,2.47,97.95627,-5.906,-4.596,85.1,0,109.3,13.45,-5.17,112.3
"2016-02-08 00:38:30",1355048,8.88,148.8,6.429,1.154,2.481,97.95598,-5.906,-4.6,85.1,0,109.3,13.45,-5.18,110.8
"2016-02-08 00:39:00",1355049,8.84,148.9,7.051,1.175,1.954,97.95653,-5.905,-4.626,85.1,0,109.3,13.45,-5.17,110.9
"2016-02-08 00:39:30",1355050,8.93,148,6.337,1.139,2.21,97.95594,-5.906,-4.624,85.1,0,109.3,13.46,-5.18,110.0
"2016-02-08 00:40:00",1355051,8.86,149.2,6.075,1.292,2.169,97.9497,-5.922,-4.633,85.1,0,109.3,13.46,-5.19,111.2
"2016-02-08 00:40:30",1355052,8.63,146.2,6.273,1.287,2.273,97.94289,-5.94,-4.617,85.1,0,109.3,13.46,-5.21,108.2
"2016-02-08 00:41:00",1355053,8.8,150.4,6.77,1.162,2.469,97.94289,-5.94,-4.637,85.1,0,109.4,13.47,-5.21,112.4
"2016-02-08 00:41:30",1355054,8.46,148.7,6.532,1.209,2.385,97.94176,-5.943,-4.605,85.2,0,109.3,13.47,-5.21,110.7
"2016-02-08 00:42:00",1355055,8.68,150.1,7.344,1.224,2.358,97.94118,-5.944,-4.631,85.2,0,109.3,13.47,-5.21,112.1
"2016-02-08 00:42:30",1355056,9.07,150.2,6.016,1.278,2.268,97.94062,-5.945,-4.632,85.2,0,109.3,13.47,-5.21,112.2
"2016-02-08 00:43:00",1355057,8.16,155.2,7.265,1.254,2.193,97.94006,-5.947,-4.623,85.3,0,109.3,13.47,-5.22,117.2
"2016-02-08 00:43:30",1355058,8.38,154.2,7.455,1.158,2.136,97.93864,-5.951,-4.628,85.3,0,109.3,13.47,-5.22,116.2
"2016-02-08 00:44:00",1355059,8.77,152.6,7.023,1.167,2.348,97.93807,-5.952,-4.66,85.3,0,109.3,13.47,-5.22,114.6
"2016-02-08 00:44:30",1355060,8.17,152.4,6.007,1.238,2.173,97.93637,-5.956,-4.642,85.3,0,109.3,13.47,-5.23,114.4
"2016-02-08 00:45:00",1355061,8.58,152,6.368,1.131,2.084,97.93495,-5.96,-4.646,85.4,0,109.3,13.47,-5.23,114.0
"2016-02-08 00:45:30",1355062,8.63,151,6.402,1.293,2.155,97.93324,-5.964,-4.639,85.4,0,109.3,13.47,-5.23,113.0
"2016-02-08 00:46:00",1355063,8.48,153.2,6.653,1.228,1.993,97.92843,-5.976,-4.657,85.4,0,109.3,13.47,-5.25,115.2
"2016-02-08 00:46:30",1355064,7.999,150.6,6.669,1.153,2.212,97.92701,-5.98,-4.656,85.5,0,109.3,13.47,-5.25,112.6
"2016-02-08 00:47:00",1355065,8.39,150.4,6.801,1.268,2.351,97.92503,-5.985,-4.662,85.5,0,109.3,13.47,-5.25,112.4
"2016-02-08 00:47:30",1355066,8.97,150.9,6.272,1.132,2.15,97.92473,-5.986,-4.647,85.5,0,109.3,13.47,-5.25,112.9
"2016-02-08 00:48:00",1355067,8.49,153.6,5.685,1.189,2.244,97.92445,-5.987,-4.643,85.6,0,109.3,13.47,-5.26,115.6
"2016-02-08 00:48:30",1355068,8.53,151.7,6.21,1.132,2.165,97.92502,-5.985,-4.664,85.6,0,109.3,13.47,-5.25,113.7
"2016-02-08 00:49:00",1355069,8.54,150.9,6.605,1.175,2.077,97.92473,-5.986,-4.703,85.6,0,109.3,13.47,-5.25,112.9
"2016-02-08 00:49:30",1355070,8.38,151.6,6.27,1.245,2.077,97.92557,-5.984,-4.664,85.6,0,109.3,13.47,-5.25,113.6
"2016-02-08 00:50:00",1355071,8.52,148.5,6.283,1.317,2.222,97.92585,-5.983,-4.645,85.7,0,109.3,13.47,-5.25,110.5
"2016-02-08 00:50:30",1355072,8.77,154.4,6.574,1.166,2.331,97.92724,-5.98,-4.656,85.7,0,109.3,13.47,-5.25,116.4
"2016-02-08 00:51:00",1355073,8.51,154.3,6.437,1.162,2.243,97.92945,-5.974,-4.662,85.7,0,109.3,13.47,-5.24,116.3
"2016-02-08 00:51:30",1355074,8.57,151.1,6.583,1.226,2.086,97.93056,-5.971,-4.672,85.8,0,109.3,13.47,-5.24,113.1
"2016-02-08 00:52:00",1355075,8.29,151.2,6.256,1.174,2.091,97.9294,-5.974,-4.686,85.8,0,109.3,13.46,-5.24,113.2
"2016-02-08 00:52:30",1355076,8.49,151.3,6.08,1.197,2.343,97.92342,-5.989,-4.679,85.8,0,109.3,13.46,-5.26,113.3
"2016-02-08 00:53:00",1355077,8.16,152.1,7.442,1.201,2.233,97.9233,-5.99,-4.697,85.8,0,109.3,13.46,-5.26,114.1
"2016-02-08 00:53:30",1355078,8.6,147.3,6.52,1.125,2.304,97.9202,-5.997,-4.682,85.9,0,109.3,13.46,-5.27,109.3
"2016-02-08 00:54:00",1355079,8.76,146.9,6.207,1.167,2.214,97.92155,-5.994,-4.698,85.9,0,109.3,13.46,-5.26,108.9
"2016-02-08 00:54:30",1355080,8.4,145.8,6.627,1.23,2.212,97.91875,-6.001,-4.725,85.8,0,109.3,13.46,-5.27,107.8
"2016-02-08 00:55:00",1355081,7.688,147.1,7.068,1.233,2.386,97.92014,-5.998,-4.693,85.9,0,109.3,13.46,-5.27,109.1
"2016-02-08 00:55:30",1355082,7.919,149.8,6.675,1.296,2.348,97.91931,-6,-4.704,85.8,0,109.3,13.46,-5.27,111.8
"2016-02-08 00:56:00",1355083,8.48,146.5,6.093,1.202,2.253,97.91698,-6.006,-4.709,85.8,0,109.3,13.47,-5.27,108.5
"2016-02-08 00:56:30",1355084,9,144.1,6.465,1.2,2.442,97.91615,-6.008,-4.7,85.8,0,109.3,13.47,-5.28,106.1
"2016-02-08 00:57:00",1355085,9.3,143.1,6.222,1.178,2.497,97.91557,-6.009,-4.702,85.8,0,109.3,13.47,-5.28,105.1
"2016-02-08 00:57:30",1355086,9.51,145.3,5.804,1.193,2.277,97.91551,-6.009,-4.716,85.7,0,109.3,13.47,-5.28,107.3
"2016-02-08 00:58:00",1355087,9.16,145.7,6.28,1.212,2.523,97.91553,-6.009,-4.742,85.6,0,109.3,13.47,-5.28,107.7
"2016-02-08 00:58:30",1355088,8.74,145.4,6.487,1.2,2.539,97.91775,-6.004,-4.725,85.6,0,109.3,13.47,-5.27,107.4
"2016-02-08 00:59:00",1355089,8.44,147.6,6.035,1.201,2.56,97.91801,-6.003,-4.717,85.5,0,109.3,13.47,-5.27,109.6
"2016-02-08 00:59:30",1355090,7.95,148,6.433,1.214,2.277,97.91857,-6.002,-4.722,85.4,0,109.3,13.47,-5.27,110.0
"2016-02-08 01:00:00",1355091,8.11,149.6,6.471,1.154,2.224,97.92113,-5.995,-4.763,85.3,0,109.3,13.48,-5.26,111.6
"2016-02-08 01:00:30",1355092,7.778,155.8,6.524,1.342,2.604,97.92506,-5.985,-4.704,85.3,0,109.3,13.48,-5.25,117.8
"2016-02-08 01:01:00",1355093,7.378,156.6,6.624,1.143,2.538,97.9248,-5.986,-4.726,85.2,0,109.3,13.48,-5.25,118.6
"2016-02-08 01:01:30",1355094,7.372,156.3,6.967,1.307,2.186,97.92648,-5.981,-4.714,85.2,0,109.3,13.48,-5.25,118.3
"2016-02-08 01:02:00",1355095,8.16,153.8,5.919,1.227,2.215,97.92562,-5.984,-4.719,85.1,0,109.3,13.48,-5.25,115.8
"2016-02-08 01:02:30",1355096,8.02,152.2,6.183,1.133,2.058,97.92564,-5.984,-4.726,85.1,0,109.2,13.48,-5.25,114.2
"2016-02-08 01:03:00",1355097,7.685,149.7,7.023,1.196,2.261,97.92844,-5.976,-4.731,85.1,0,109.3,13.48,-5.25,111.7
"2016-02-08 01:03:30",1355098,8.39,146.6,6.364,1.213,2.361,97.92815,-5.977,-4.707,85,0,109.3,13.48,-5.25,108.6
"2016-02-08 01:04:00",1355099,8.59,146.3,6.558,1.205,2.172,97.92873,-5.976,-4.699,85,0,109.3,13.48,-5.24,108.3
"2016-02-08 01:04:30",1355100,8.58,146.1,6.22,1.248,2.092,97.92646,-5.982,-4.717,84.9,0,109.3,13.48,-5.25,108.1
"2016-02-08 01:05:00",1355101,8.42,145.4,6.185,1.112,2.112,97.92676,-5.981,-4.727,84.9,0,109.3,13.48,-5.25,107.4
"2016-02-08 01:05:30",1355102,7.861,143.9,6.63,1.288,2.28,97.9259,-5.983,-4.717,84.9,0,109.3,13.48,-5.25,105.9
"2016-02-08 01:06:00",1355103,7.985,147.5,6.39,1.256,2.387,97.92561,-5.984,-4.709,84.9,0,109.3,13.48,-5.25,109.5
"2016-02-08 01:06:30",1355104,8.08,147.9,5.98,1.218,2.493,97.92419,-5.987,-4.716,84.8,0,109.3,13.48,-5.26,109.9
"2016-02-08 01:07:00",1355105,8.39,148.4,6.405,1.196,2.104,97.92222,-5.992,-4.707,84.8,0,109.3,13.48,-5.26,110.4
"2016-02-08 01:07:30",1355106,8.43,151.2,6.485,1.15,2.209,97.92221,-5.992,-4.713,84.7,0,109.3,13.48,-5.26,113.2
"2016-02-08 01:08:00",1355107,8.35,151.2,6.354,1.207,2.488,97.92164,-5.994,-4.725,84.7,0,109.3,13.47,-5.26,113.2
"2016-02-08 01:08:30",1355108,8.72,151.1,6.252,1.26,2.288,97.91967,-5.999,-4.726,84.6,0,109.3,13.47,-5.27,113.1
"2016-02-08 01:09:00",1355109,8.8,151.9,6.153,1.231,2.214,97.92051,-5.997,-4.709,84.5,0,109.3,13.47,-5.27,113.9
"2016-02-08 01:09:30",1355110,9.19,149.9,6.198,1.121,2.571,97.91882,-6.001,-4.719,84.4,0,109.3,13.47,-5.27,111.9
"2016-02-08 01:10:00",1355111,9.29,148.7,6.191,1.208,2.142,97.9185,-6.002,-4.732,84.3,0,109.3,13.47,-5.27,110.7
"2016-02-08 01:10:30",1355112,8.79,148.2,6.819,1.201,2.631,97.91795,-6.003,-4.733,84.3,0,109.3,13.47,-5.27,110.2
"2016-02-08 01:11:00",1355113,8.68,146.5,6.08,1.242,2.446,97.91823,-6.002,-4.717,84.2,0,109.3,13.47,-5.27,108.5
"2016-02-08 01:11:30",1355114,8.68,147.2,6.074,1.248,2.303,97.9202,-5.997,-4.73,84.1,0,109.3,13.47,-5.27,109.2
"2016-02-08 01:12:00",1355115,8.75,144.2,6.297,1.131,2.263,97.92075,-5.996,-4.725,84.1,0,109.3,13.46,-5.27,106.2
"2016-02-08 01:12:30",1355116,8.53,144.4,6.911,1.295,2.527,97.92101,-5.995,-4.716,84.1,0,109.3,13.47,-5.26,106.4
"2016-02-08 01:13:00",1355117,8.57,143.8,6.265,1.186,2.59,97.92183,-5.993,-4.751,84,0,109.3,13.47,-5.26,105.8
"2016-02-08 01:13:30",1355118,8.29,145,6.576,1.218,2.394,97.92182,-5.993,-4.715,84,0,109.3,13.48,-5.26,107.0
"2016-02-08 01:14:00",1355119,8.24,143.7,6.204,1.326,2.091,97.92153,-5.994,-4.714,83.9,0,109.3,13.48,-5.26,105.7
"2016-02-08 01:14:30",1355120,8.48,143.2,6.463,1.154,2.211,97.92236,-5.992,-4.713,83.9,0,109.3,13.48,-5.26,105.2
"2016-02-08 01:15:00",1355121,8.32,143.5,6.735,1.223,2.658,97.92265,-5.991,-4.719,83.9,0,109.3,13.48,-5.26,105.5
"2016-02-08 01:15:30",1355122,8.66,143.9,6.362,1.305,2.421,97.92375,-5.988,-4.713,83.8,0,109.3,13.48,-5.26,105.9
"2016-02-08 01:16:00",1355123,8.95,144.8,6.147,1.136,2.424,97.9232,-5.99,-4.717,83.7,0,109.3,13.48,-5.26,106.8
"2016-02-08 01:16:30",1355124,8.98,145.1,6.154,1.231,2.386,97.92348,-5.989,-4.728,83.7,0,109.3,13.48,-5.26,107.1
"2016-02-08 01:17:00",1355125,8.72,144.9,6.265,1.205,2.092,97.92375,-5.988,-4.747,83.6,0,109.3,13.48,-5.26,106.9
"2016-02-08 01:17:30",1355126,8.58,143.9,6.32,1.169,2.604,97.92348,-5.989,-4.741,83.5,0,109.3,13.48,-5.26,105.9
"2016-02-08 01:18:00",1355127,8.82,143.4,6.221,1.176,2.525,97.92348,-5.989,-4.725,83.4,0,109.3,13.48,-5.26,105.4
"2016-02-08 01:18:30",1355128,8.76,142.4,6.174,1.249,2.463,97.92375,-5.988,-4.725,83.4,0,109.3,13.48,-5.26,104.4
"2016-02-08 01:19:00",1355129,8.81,144.5,6.377,1.2,2.275,97.92375,-5.988,-4.719,83.3,0,109.3,13.48,-5.26,106.5
"2016-02-08 01:19:30",1355130,8.69,144.9,6.235,1.212,2.271,97.92375,-5.988,-4.744,83.2,0,109.3,13.48,-5.26,106.9
"2016-02-08 01:20:00",1355131,8.34,144,6.18,1.236,2.483,97.92375,-5.988,-4.762,83.2,0,109.3,13.48,-5.26,106.0
"2016-02-08 01:20:30",1355132,8.35,144.9,6.709,1.228,2.444,97.92262,-5.991,-4.737,83.1,0,109.3,13.48,-5.26,106.9
"2016-02-08 01:21:00",1355133,8.34,147.6,6.594,1.215,2.184,97.92007,-5.998,-4.733,83,0,109.3,13.48,-5.27,109.6
"2016-02-08 01:21:30",1355134,8.64,148.9,6.389,1.129,2.591,97.91496,-6.011,-4.736,82.9,0,109.3,13.48,-5.28,110.9
"2016-02-08 01:22:00",1355135,8.71,148.6,6.476,1.14,2.209,97.91354,-6.014,-4.732,82.8,0,109.3,13.48,-5.28,110.6
"2016-02-08 01:22:30",1355136,8.48,147.7,6.661,1.284,2.322,97.91014,-6.023,-4.768,82.7,0,109.3,13.48,-5.29,109.7
"2016-02-08 01:23:00",1355137,8.52,147,6.235,1.236,2.386,97.91127,-6.02,-4.743,82.6,0,109.3,13.48,-5.29,109.0
"2016-02-08 01:23:30",1355138,8.16,150,6.554,1.228,2.146,97.91014,-6.023,-4.745,82.5,0,109.3,13.48,-5.29,112.0
"2016-02-08 01:24:00",1355139,8.35,146.3,6.915,1.185,2.13,97.90787,-6.029,-4.757,82.4,0,109.3,13.48,-5.30,108.3
"2016-02-08 01:24:30",1355140,8.02,146.6,5.653,1.29,2.539,97.909,-6.026,-4.736,82.4,0,109.3,13.48,-5.30,108.6
"2016-02-08 01:25:00",1355141,8.79,145.4,6.485,1.124,2.417,97.90844,-6.027,-4.769,82.3,0,109.3,13.48,-5.30,107.4
"2016-02-08 01:25:30",1355142,8.48,145.5,6.536,1.294,2.312,97.90816,-6.028,-4.782,82.2,0,109.3,13.48,-5.30,107.5
"2016-02-08 01:26:00",1355143,8.56,147.2,6.042,1.201,2.307,97.90957,-6.024,-4.744,82.2,0,109.3,13.47,-5.29,109.2
"2016-02-08 01:26:30",1355144,8.45,148,6.156,1.166,2.125,97.90844,-6.027,-4.751,82.1,0,109.3,13.47,-5.30,110.0
"2016-02-08 01:27:00",1355145,8.07,150.5,6.391,1.234,2.428,97.90701,-6.031,-4.763,82.1,0,109.3,13.47,-5.30,112.5
"2016-02-08 01:27:30",1355146,7.851,152.4,6.369,1.246,2.389,97.90787,-6.029,-4.741,82,0,109.3,13.47,-5.30,114.4
"2016-02-08 01:28:00",1355147,8.11,150.3,6.416,1.195,2.449,97.90787,-6.029,-4.751,82,0,109.3,13.47,-5.30,112.3
"2016-02-08 01:28:30",1355148,8.28,150.3,6.212,1.286,2.169,97.90617,-6.033,-4.747,82,0,109.3,13.47,-5.30,112.3
"2016-02-08 01:29:00",1355149,8.42,148.8,6.308,1.234,2.19,97.90646,-6.032,-4.742,82,0,109.3,13.47,-5.30,110.8
"2016-02-08 01:29:30",1355150,8.29,148.3,6.756,1.261,2.125,97.90503,-6.036,-4.749,81.9,0,109.3,13.48,-5.31,110.3
"2016-02-08 01:30:00",1355151,8.37,146.6,6.725,1.31,2.368,97.90531,-6.035,-4.76,81.9,0,109.3,13.48,-5.30,108.6
"2016-02-08 01:30:30",1355152,8.25,147.2,5.996,1.204,2.509,97.90588,-6.034,-4.734,81.9,0,109.3,13.48,-5.30,109.2
"2016-02-08 01:31:00",1355153,8.69,144.1,6.521,1.255,2.063,97.90475,-6.037,-4.745,81.9,0,109.3,13.48,-5.31,106.1
"2016-02-08 01:31:30",1355154,9.01,143.8,6.586,1.256,2.073,97.90361,-6.04,-4.735,81.9,0,109.3,13.48,-5.31,105.8
"2016-02-08 01:32:00",1355155,8.84,145,6.158,1.234,2.445,97.90333,-6.04,-4.747,81.8,0,109.3,13.48,-5.31,107.0
"2016-02-08 01:32:30",1355156,8.82,145.2,6.342,1.243,2.406,97.90191,-6.044,-4.764,81.8,0,109.3,13.48,-5.31,107.2
"2016-02-08 01:33:00",1355157,8.89,145.8,6.159,1.175,2.301,97.90134,-6.045,-4.714,81.8,0,109.3,13.48,-5.31,107.8
"2016-02-08 01:33:30",1355158,8.87,147.8,6.208,1.204,2.629,97.90134,-6.045,-4.758,81.7,0,109.3,13.48,-5.31,109.8
"2016-02-08 01:34:00",1355159,8.82,147.9,6.38,1.249,2.335,97.89937,-6.05,-4.739,81.7,0,109.3,13.48,-5.32,109.9
"2016-02-08 01:34:30",1355160,8.57,146.8,6.109,1.218,2.476,97.89794,-6.054,-4.766,81.6,0,109.3,13.48,-5.32,108.8
"2016-02-08 01:35:00",1355161,8.34,147.9,6.624,1.174,2.522,97.90163,-6.045,-4.768,81.6,0,109.3,13.48,-5.31,109.9
"2016-02-08 01:35:30",1355162,8.38,148.3,6.331,1.166,2.308,97.90191,-6.044,-4.762,81.5,0,109.3,13.48,-5.31,110.3
"2016-02-08 01:36:00",1355163,8.29,151.9,6.267,1.21,2.088,97.90305,-6.041,-4.761,81.5,0,109.3,13.48,-5.31,113.9
"2016-02-08 01:36:30",1355164,8.31,150.1,6.143,1.259,2.458,97.90276,-6.042,-4.734,81.5,0,109.3,13.48,-5.31,112.1
"2016-02-08 01:37:00",1355165,8.52,149.4,6.516,1.186,2.426,97.9039,-6.039,-4.758,81.5,0,109.3,13.48,-5.31,111.4
"2016-02-08 01:37:30",1355166,8.31,149.2,6.421,1.252,2.486,97.90361,-6.04,-4.746,81.5,0,109.3,13.48,-5.31,111.2
"2016-02-08 01:38:00",1355167,8.13,149.5,6.486,1.282,1.979,97.90503,-6.036,-4.735,81.5,0,109.3,13.48,-5.31,111.5
"2016-02-08 01:38:30",1355168,8.55,148.9,6.392,1.206,2.263,97.90531,-6.035,-4.731,81.5,0,109.3,13.48,-5.30,110.9
"2016-02-08 01:39:00",1355169,8.54,148.3,6.208,1.209,2.515,97.90418,-6.038,-4.77,81.5,0,109.3,13.48,-5.31,110.3
"2016-02-08 01:39:30",1355170,8.36,150,6.133,1.195,2.235,97.90446,-6.037,-4.737,81.5,0,109.3,13.48,-5.31,112.0
"2016-02-08 01:40:00",1355171,8.79,148.2,6.262,1.138,2.439,97.90276,-6.042,-4.745,81.5,0,109.3,13.48,-5.31,110.2
"2016-02-08 01:40:30",1355172,8.62,150.5,5.9,1.198,2.323,97.90191,-6.044,-4.744,81.4,0,109.3,13.48,-5.31,112.5
"2016-02-08 01:41:00",1355173,8.49,148.4,6.209,1.23,1.966,97.90361,-6.04,-4.759,81.4,0,109.3,13.48,-5.31,110.4
"2016-02-08 01:41:30",1355174,8.22,148.6,6.15,1.224,2.438,97.90134,-6.045,-4.763,81.4,0,109.3,13.48,-5.31,110.6
"2016-02-08 01:42:00",1355175,8.28,148.4,6.976,1.173,2.529,97.90305,-6.041,-4.746,81.3,0,109.3,13.48,-5.31,110.4
"2016-02-08 01:42:30",1355176,7.977,150.6,6.489,1.233,2.413,97.90134,-6.045,-4.747,81.2,0,109.3,13.48,-5.31,112.6
"2016-02-08 01:43:00",1355177,8.12,149.8,6.323,1.187,2.221,97.90078,-6.047,-4.714,81.1,0,109.3,13.48,-5.32,111.8
"2016-02-08 01:43:30",1355178,8.37,150.7,5.95,1.19,2.244,97.9022,-6.043,-4.733,81.1,0,109.3,13.48,-5.31,112.7
"2016-02-08 01:44:00",1355179,8.4,148.8,6.121,1.234,2.35,97.90107,-6.046,-4.777,81,0,109.3,13.48,-5.32,110.8
"2016-02-08 01:44:30",1355180,8.5,149.1,6.553,1.185,2.467,97.9022,-6.043,-4.754,81,0,109.3,13.48,-5.31,111.1
"2016-02-08 01:45:00",1355181,8.18,151.1,6.215,1.212,2.164,97.9005,-6.048,-4.741,80.9,0,109.3,13.48,-5.32,113.1
"2016-02-08 01:45:30",1355182,8.44,152.1,6.17,1.186,2.445,97.90107,-6.046,-4.734,80.8,0,109.3,13.48,-5.32,114.1
"2016-02-08 01:46:00",1355183,8.56,152.6,5.948,1.13,2.178,97.89993,-6.049,-4.736,80.8,0,109.3,13.48,-5.32,114.6
"2016-02-08 01:46:30",1355184,8.33,150.7,6.481,1.271,2.253,97.90107,-6.046,-4.765,80.7,0,109.3,13.48,-5.32,112.7